QPF
0.00 0.00 0.00 0.00 0.00 0.00 0.00 0.00 0.00 0.00 0.00 0.00 0.00 0.00 0.00 0.01 0.03 0.06 0.02 0.02 0.02 0.02 0.01 0.00 0.00 0.00 0.00 0.00 0.00 0.00 0.00 0.00 0.00 0.00 0.00 0.00 0.00 0.00 0.00 0.00 0.00 0.00 0.00 0.00 0.00 0.00 0.00 0.00 0.00
0.00 0.00 0.00 0.00 0.00 0.00 0.00 0.00 0.00 0.00 0.00 0.00 0.00 0.00 0.00 0.00 0.01 0.01 0.00 0.01 0.01 0.00 0.00 0.00 0.00 0.00 0.00 0.00 0.00 0.00 0.00 0.00 0.00 0.00 0.00 0.00 0.00 0.00 0.00 0.00 0.00 0.00 0.00 0.00 0.00 0.00 0.00 0.00 0.00
0.00 0.00 0.00 0.00 0.00 0.00 0.00 0.00 0.00 0.00 0.00 0.00 0.00 0.00 0.00 0.00 0.00 0.00 0.00 0.00 0.00 0.00 0.00 0.00 0.00 0.00 0.00 0.00 0.00 0.00 0.00 0.00 0.00 0.00 0.00 0.00 0.00 0.00 0.00 0.00 0.00 0.00 0.00 0.00 0.00 0.00 0.00 0.00 0.00
0.00 0.00 0.00 0.00 0.00 0.00 0.00 0.00 0.00 0.00 0.00 0.00 0.00 0.00 0.00 0.00 0.00 0.00 0.00 0.00 0.00 0.00 0.00 0.00 0.00 0.00 0.00 0.00 0.00 0.00 0.00 0.00 0.00 0.00 0.00 0.00 0.00 0.00 0.00 0.00 0.00 0.00 0.00 0.00 0.00 0.00 0.00 0.00 0.00
0.00 0.00 0.00 0.00 0.00 0.00 0.00 0.00 0.00 0.00 0.00 0.00 0.00 0.00 0.00 0.00 0.00 0.00 0.00 0.00 0.00 0.00 0.00 0.00 0.00 0.00 0.00 0.00 0.00 0.00 0.00 0.00 0.00 0.00 0.00 0.00 0.00 0.00 0.00 0.00 0.00 0.00 0.00 0.00 0.00 0.00 0.00 0.00 0.00
0.00 0.00 0.00 0.00 0.00 0.00 0.00 0.00 0.00 0.00 0.00 0.00 0.00 0.00 0.00 0.00 0.00 0.00 0.00 0.00 0.00 0.00 0.00 0.00 0.00 0.00 0.00 0.00 0.00 0.00 0.00 0.00 0.00 0.00 0.00 0.00 0.00 0.00 0.00 0.00 0.00 0.00 0.00 0.00 0.00 0.00 0.00 0.00 0.00
0.00 0.00 0.00 0.00 0.00 0.00 0.00 0.00 0.00 0.00 0.00 0.00 0.00 0.00 0.00 0.00 0.00 0.00 0.00 0.00 0.00 0.00 0.00 0.00 0.00 0.00 0.00 0.00 0.00 0.00 0.00 0.00 0.00 0.00 0.00 0.00 0.00 0.00 0.00 0.00 0.00 0.00 0.00 0.00 0.00 0.00 0.00 0.00 0.00
0.00 0.00 0.00 0.00 0.00 0.00 0.00 0.00 0.00 0.00 0.00 0.00 0.00 0.00 0.00 0.00 0.00 0.00 0.00 0.00 0.00 0.00 0.00 0.00 0.00 0.00 0.00 0.00 0.00 0.00 0.00 0.00 0.00 0.00 0.00 0.00 0.00 0.00 0.00 0.03 0.08 0.05 0.01 0.05 0.04 0.00 0.00 0.00 0.00
0.00 0.00 0.00 0.00 0.00 0.00 0.00 0.00 0.00 0.00 0.00 0.00 0.00 0.00 0.00 0.00 0.00 0.00 0.00 0.00 0.00 0.00 0.00 0.00 0.00 0.00 0.00 0.00 0.00 0.00 0.00 0.00 0.00 0.00 0.00 0.00 0.00 0.00 0.00 0.00 0.00 0.00 0.00 0.05 0.07 0.10 0.03 0.01 0.00
0.00 0.00 0.00 0.00 0.00 0.00 0.00 0.00 0.00 0.00 0.00 0.00 0.00 0.00 0.00 0.00 0.00 0.00 0.00 0.00 0.00 0.00 0.00 0.00 0.00 0.00 0.00 0.00 0.00 0.00 0.00 0.00 0.00 0.00 0.00 0.00 0.00 0.00 0.00 0.00 0.00 0.00 0.00 0.00 0.00 0.04 0.05 0.01 0.00
0.00 0.00 0.00 0.00 0.00 0.00 0.00 0.00 0.00 0.00 0.00 0.00 0.00 0.00 0.00 0.00 0.00 0.00 0.00 0.00 0.00 0.00 0.00 0.00 0.00 0.00 0.00 0.00 0.00 0.00 0.00 0.00 0.00 0.00 0.00 0.00 0.00 0.00 0.00 0.00 0.00 0.00 0.00 0.00 0.00 0.00 0.02 0.05 0.01
0.00 0.00 0.00 0.00 0.00 0.00 0.00 0.00 0.00 0.00 0.00 0.00 0.00 0.00 0.00 0.00 0.00 0.00 0.00 0.00 0.00 0.00 0.00 0.00 0.00 0.00 0.00 0.00 0.00 0.00 0.00 0.00 0.00 0.00 0.00 0.00 0.00 0.00 0.00 0.00 0.00 0.00 0.00 0.00 0.00 0.00 0.00 0.00 0.01
0.00 0.00 0.00 0.00 0.00 0.00 0.00 0.00 0.00 0.00 0.00 0.00 0.00 0.00 0.00 0.00 0.00 0.00 0.00 0.00 0.00 0.00 0.00 0.00 0.00 0.00 0.00 0.00 0.00 0.00 0.00 0.00 0.00 0.00 0.00 0.00 0.00 0.00 0.00 0.00 0.00 0.00 0.00 0.00 0.00 0.00 0.00 0.00 0.00
0.00 0.00 0.00 0.00 0.00 0.00 0.00 0.00 0.00 0.00 0.00 0.00 0.00 0.00 0.00 0.00 0.00 0.00 0.00 0.00 0.00 0.00 0.00 0.00 0.00 0.00 0.00 0.00 0.00 0.00 0.00 0.00 0.00 0.00 0.00 0.00 0.00 0.00 0.00 0.00 0.00 0.00 0.00 0.00 0.00 0.00 0.00 0.00 0.00
0.00 0.00 0.00 0.00 0.00 0.00 0.00 0.00 0.00 0.00 0.00 0.00 0.00 0.00 0.00 0.00 0.00 0.00 0.00 0.00 0.00 0.00 0.00 0.00 0.00 0.00 0.00 0.00 0.00 0.00 0.00 0.00 0.00 0.00 0.00 0.00 0.00 0.00 0.00 0.00 0.00 0.00 0.00 0.00 0.00 0.00 0.00 0.00 0.00
0.00 0.00 0.00 0.00 0.00 0.00 0.00 0.00 0.00 0.00 0.00 0.00 0.00 0.00 0.00 0.00 0.00 0.00 0.00 0.00 0.00 0.00 0.00 0.00 0.00 0.00 0.00 0.00 0.00 0.00 0.00 0.00 0.00 0.00 0.00 0.00 0.00 0.00 0.00 0.00 0.00 0.00 0.00 0.00 0.00 0.00 0.00 0.00 0.00
0.00 0.00 0.00 0.00 0.00 0.00 0.00 0.00 0.00 0.00 0.00 0.00 0.00 0.00 0.00 0.00 0.00 0.00 0.00 0.00 0.00 0.00 0.00 0.00 0.00 0.00 0.00 0.00 0.00 0.00 0.00 0.00 0.00 0.00 0.00 0.00 0.00 0.00 0.00 0.00 0.00 0.00 0.00 0.00 0.00 0.00 0.00 0.00 0.00
0.00 0.00 0.00 0.00 0.00 0.00 0.00 0.00 0.00 0.00 0.00 0.00 0.00 0.00 0.00 0.00 0.00 0.00 0.00 0.00 0.00 0.00 0.00 0.00 0.00 0.00 0.00 0.00 0.00 0.00 0.00 0.00 0.00 0.00 0.00 0.00 0.00 0.00 0.00 0.00 0.00 0.00 0.00 0.00 0.00 0.00 0.00 0.00 0.00
0.00 0.00 0.00 0.00 0.00 0.00 0.00 0.00 0.00 0.00 0.00 0.00 0.00 0.00 0.00 0.00 0.00 0.00 0.00 0.00 0.00 0.00 0.00 0.00 0.00 0.00 0.00 0.00 0.00 0.00 0.00 0.00 0.00 0.00 0.00 0.00 0.00 0.00 0.00 0.00 0.00 0.00 0.00 0.00 0.00 0.00 0.00 0.00 0.00
0.00 0.00 0.00 0.00 0.00 0.00 0.00 0.00 0.00 0.00 0.00 0.00 0.00 0.00 0.00 0.00 0.00 0.00 0.00 0.00 0.00 0.00 0.00 0.00 0.00 0.00 0.00 0.00 0.00 0.00 0.00 0.00 0.00 0.00 0.00 0.00 0.00 0.00 0.00 0.00 0.00 0.00 0.00 0.00 0.00 0.00 0.00 0.00 0.00
0.00 0.00 0.00 0.00 0.00 0.00 0.00 0.00 0.00 0.00 0.00 0.00 0.00 0.00 0.00 0.00 0.00 0.00 0.00 0.00 0.00 0.00 0.00 0.00 0.00 0.00 0.00 0.00 0.00 0.00 0.00 0.00 0.00 0.00 0.00 0.00 0.00 0.00 0.00 0.00 0.00 0.00 0.00 0.00 0.00 0.00 0.00 0.00 0.00
0.00 0.00 0.00 0.00 0.00 0.00 0.00 0.00 0.00 0.00 0.00 0.00 0.00 0.00 0.00 0.00 0.00 0.00 0.00 0.00 0.00 0.00 0.00 0.00 0.00 0.00 0.00 0.00 0.00 0.00 0.00 0.00 0.00 0.00 0.00 0.00 0.00 0.00 0.00 0.00 0.00 0.00 0.00 0.00 0.00 0.00 0.00 0.00 0.00
0.00 0.00 0.00 0.00 0.00 0.00 0.00 0.00 0.00 0.00 0.00 0.00 0.00 0.00 0.00 0.00 0.00 0.00 0.00 0.00 0.00 0.00 0.00 0.00 0.00 0.00 0.00 0.00 0.00 0.00 0.00 0.00 0.00 0.00 0.00 0.00 0.00 0.00 0.00 0.00 0.00 0.00 0.00 0.00 0.00 0.00 0.00 0.00 0.00
0.00 0.00 0.00 0.00 0.00 0.00 0.00 0.00 0.00 0.00 0.00 0.00 0.00 0.00 0.00 0.00 0.00 0.00 0.00 0.00 0.00 0.00 0.00 0.00 0.00 0.00 0.00 0.00 0.00 0.00 0.00 0.00 0.00 0.00 0.00 0.00 0.00 0.00 0.00 0.00 0.00 0.00 0.00 0.00 0.00 0.00 0.00 0.00 0.00
0.00 0.00 0.00 0.00 0.00 0.00 0.00 0.00 0.00 0.00 0.00 0.00 0.00 0.00 0.00 0.00 0.00 0.00 0.00 0.00 0.00 0.00 0.00 0.00 0.00 0.00 0.00 0.00 0.00 0.00 0.00 0.00 0.00 0.00 0.00 0.00 0.00 0.00 0.00 0.00 0.00 0.00 0.00 0.00 0.00 0.00 0.00 0.00 0.00
0.00 0.00 0.00 0.00 0.00 0.00 0.00 0.00 0.00 0.00 0.00 0.00 0.00 0.00 0.00 0.00 0.00 0.00 0.00 0.00 0.00 0.00 0.00 0.00 0.00 0.00 0.00 0.00 0.00 0.00 0.00 0.00 0.00 0.00 0.00 0.00 0.00 0.00 0.00 0.00 0.00 0.00 0.00 0.00 0.00 0.00 0.00 0.00 0.00
0.00 0.00 0.00 0.00 0.00 0.00 0.00 0.00 0.00 0.00 0.00 0.00 0.00 0.00 0.00 0.00 0.00 0.00 0.00 0.00 0.00 0.00 0.00 0.00 0.00 0.00 0.00 0.00 0.00 0.00 0.00 0.00 0.00 0.00 0.00 0.00 0.00 0.00 0.00 0.00 0.00 0.00 0.00 0.00 0.00 0.00 0.00 0.00 0.00
0.00 0.00 0.00 0.00 0.00 0.00 0.00 0.00 0.00 0.00 0.00 0.00 0.00 0.00 0.00 0.00 0.00 0.00 0.00 0.00 0.00 0.00 0.00 0.00 0.00 0.00 0.00 0.00 0.00 0.00 0.00 0.00 0.00 0.00 0.00 0.00 0.00 0.00 0.00 0.00 0.00 0.00 0.00 0.00 0.00 0.00 0.00 0.00 0.00
0.00 0.00 0.00 0.00 0.00 0.00 0.00 0.00 0.00 0.00 0.00 0.00 0.00 0.00 0.00 0.00 0.00 0.00 0.00 0.00 0.00 0.00 0.00 0.00 0.00 0.00 0.00 0.00 0.00 0.00 0.00 0.00 0.00 0.00 0.00 0.00 0.00 0.00 0.00 0.00 0.00 0.00 0.00 0.00 0.00 0.00 0.00 0.00 0.00
0.00 0.00 0.00 0.00 0.00 0.00 0.00 0.00 0.00 0.00 0.00 0.01 0.00 0.00 0.00 0.00 0.00 0.00 0.00 0.00 0.00 0.00 0.00 0.00 0.00 0.00 0.00 0.00 0.00 0.00 0.00 0.00 0.00 0.00 0.00 0.00 0.00 0.00 0.00 0.00 0.00 0.00 0.00 0.00 0.00 0.00 0.00 0.00 0.00
MSLP
1010.43 1009.84 1009.73 1009.90 1010.82 1010.49 1009.71 1007.58 1005.79 1005.11 1005.49 1006.96 1006.64 1008.23 1011.84 1013.63 1014.74 1017.22 1017.90 1017.83 1017.43 1017.77 1017.61 1016.58 1016.20 1015.87 1015.69 1015.45 1015.23 1015.04 1014.99 1014.90 1014.89 1014.89 1014.88 1014.94 1015.06 1015.14 1015.29 1015.35 1015.26 1015.29 1015.26 1015.26 1015.32 1015.32 1015.31 1015.29 1015.25
1010.43 1009.95 1009.64 1009.69 1010.49 1010.30 1008.71 1006.62 1006.18 1005.82 1006.29 1006.91 1007.86 1009.76 1011.59 1014.43 1015.77 1016.90 1017.63 1017.57 1017.55 1017.63 1017.22 1016.86 1016.48 1016.21 1016.03 1015.77 1015.58 1015.53 1015.47 1015.31 1015.20 1015.05 1015.05 1015.13 1015.16 1015.23 1015.35 1015.42 1015.47 1015.47 1015.40 1015.40 1015.36 1015.41 1015.35 1015.36 1015.31
1010.35 1010.20 1010.48 1010.03 1009.73 1009.51 1008.34 1006.69 1005.84 1005.77 1006.09 1006.88 1009.42 1011.28 1013.39 1015.50 1016.25 1016.87 1017.30 1017.31 1017.23 1017.30 1017.34 1017.23 1016.86 1016.48 1016.16 1016.12 1016.13 1015.98 1015.86 1015.76 1015.61 1015.46 1015.33 1015.33 1015.32 1015.31 1015.25 1015.44 1015.41 1015.58 1015.51 1015.47 1015.42 1015.42 1015.38 1015.43 1015.38
1010.29 1010.12 1010.21 1009.87 1009.30 1007.92 1007.36 1006.39 1005.60 1005.82 1006.58 1007.58 1010.00 1013.09 1015.33 1016.61 1016.54 1016.88 1016.96 1017.00 1017.32 1017.42 1017.43 1017.26 1016.95 1016.64 1016.47 1016.48 1016.44 1016.31 1016.20 1016.15 1016.02 1015.91 1015.78 1015.68 1015.49 1015.42 1015.38 1015.48 1015.45 1015.51 1015.51 1015.41 1015.43 1015.33 1015.26 1015.34 1015.30
1009.72 1010.06 1010.48 1009.87 1008.61 1007.64 1006.49 1005.60 1005.70 1006.13 1007.31 1008.66 1009.71 1013.72 1015.86 1016.81 1017.04 1017.10 1017.15 1017.30 1017.62 1017.82 1017.63 1017.32 1017.16 1017.04 1016.86 1016.83 1016.72 1016.69 1016.59 1016.42 1016.41 1016.25 1016.08 1015.88 1015.78 1015.58 1015.46 1015.41 1015.35 1015.32 1015.41 1015.29 1015.23 1015.15 1015.07 1015.08 1015.06
1010.49 1010.32 1010.64 1010.01 1008.47 1007.15 1006.10 1005.63 1005.81 1007.40 1008.42 1009.41 1011.20 1013.32 1016.40 1016.81 1017.24 1017.50 1017.56 1017.79 1017.82 1017.87 1017.73 1017.62 1017.40 1017.35 1017.09 1016.98 1016.94 1016.91 1016.91 1016.81 1016.74 1016.63 1016.26 1016.02 1015.88 1015.77 1015.54 1015.44 1015.25 1015.24 1015.15 1015.15 1015.12 1015.00 1014.86 1014.84 1014.78
1010.66 1011.05 1010.64 1009.63 1008.50 1007.71 1006.46 1005.95 1007.29 1008.35 1008.99 1010.24 1010.77 1013.74 1016.30 1016.72 1016.94 1017.34 1017.61 1017.78 1017.85 1017.82 1017.96 1017.95 1017.81 1017.69 1017.36 1017.21 1017.25 1017.22 1017.20 1017.15 1017.09 1016.95 1016.69 1016.34 1016.26 1016.06 1015.72 1015.57 1015.38 1015.38 1015.26 1014.97 1014.93 1014.71 1014.66 1014.63 1014.60
1010.06 1010.69 1010.21 1009.47 1008.73 1007.31 1006.97 1007.24 1008.29 1008.90 1010.66 1011.04 1011.59 1013.62 1015.74 1016.07 1016.60 1017.07 1017.36 1017.61 1017.91 1018.10 1018.25 1018.32 1018.13 1018.01 1017.76 1017.58 1017.40 1017.41 1017.36 1017.40 1017.47 1017.40 1017.18 1016.81 1016.64 1016.41 1016.08 1015.86 1015.65 1015.43 1015.16 1014.96 1014.92 1014.52 1014.38 1014.23 1014.27
1009.65 1010.42 1010.30 1009.65 1008.81 1008.26 1007.50 1007.96 1009.06 1010.52 1011.30 1012.25 1012.96 1013.54 1014.48 1015.42 1016.24 1017.01 1017.44 1017.71 1018.02 1018.50 1018.72 1018.65 1018.66 1018.34 1017.99 1017.77 1017.77 1017.89 1017.69 1017.78 1017.83 1017.76 1017.63 1017.26 1017.18 1016.98 1016.65 1016.34 1016.14 1015.90 1015.47 1015.11 1014.93 1014.68 1014.33 1014.02 1014.06
1009.79 1010.17 1009.83 1009.21 1008.87 1008.76 1008.02 1008.55 1009.52 1011.02 1011.91 1013.58 1013.96 1014.37 1014.95 1015.50 1016.25 1017.01 1017.56 1018.00 1018.48 1018.96 1019.24 1019.27 1019.23 1018.87 1018.40 1018.09 1018.23 1018.32 1018.26 1018.19 1018.27 1018.19 1018.19 1018.00 1017.79 1017.58 1017.26 1017.01 1016.45 1016.14 1015.69 1015.38 1015.16 1014.81 1014.42 1014.20 1014.11
1009.50 1009.66 1009.58 1009.11 1008.88 1008.78 1009.12 1009.13 1009.78 1011.29 1012.50 1012.88 1013.97 1014.49 1015.10 1015.97 1016.83 1017.55 1018.02 1018.38 1019.02 1019.38 1019.56 1019.71 1019.56 1019.31 1019.03 1018.78 1018.71 1018.66 1018.74 1018.53 1018.55 1018.68 1018.46 1018.58 1018.34 1018.20 1017.80 1017.53 1017.16 1016.65 1016.21 1016.15 1015.88 1015.52 1015.16 1014.85 1014.63
1009.56 1009.35 1009.25 1008.85 1008.82 1009.27 1009.54 1009.80 1011.36 1011.78 1012.86 1012.96 1014.24 1014.93 1015.46 1016.34 1017.18 1017.85 1018.50 1019.02 1019.41 1019.88 1020.01 1020.07 1019.86 1019.74 1019.63 1019.32 1019.20 1019.04 1018.84 1018.74 1018.73 1018.91 1018.83 1018.78 1018.94 1018.80 1018.55 1018.11 1017.66 1017.40 1017.46 1017.11 1016.71 1016.32 1015.85 1015.55 1015.13
1010.03 1009.91 1009.42 1008.92 1008.76 1009.18 1009.66 1010.50 1011.79 1013.15 1013.41 1013.59 1014.44 1015.43 1016.23 1017.02 1017.61 1018.21 1018.66 1019.15 1019.79 1020.17 1020.24 1020.39 1020.35 1020.28 1020.01 1019.70 1019.49 1019.26 1019.10 1018.94 1019.01 1019.17 1019.19 1019.29 1019.52 1019.36 1019.19 1018.79 1018.38 1018.47 1018.07 1017.78 1017.29 1016.78 1016.30 1015.84 1015.46
1010.50 1010.22 1009.91 1009.50 1009.35 1009.30 1009.94 1011.02 1011.43 1013.83 1013.55 1014.14 1014.81 1015.78 1016.61 1017.09 1017.63 1018.58 1019.14 1019.56 1019.95 1020.27 1020.36 1020.50 1020.64 1020.48 1020.22 1019.96 1019.67 1019.52 1019.34 1019.27 1019.39 1019.84 1019.69 1019.68 1019.91 1020.01 1019.66 1019.38 1019.24 1019.10 1018.66 1018.18 1017.82 1017.34 1017.11 1016.86 1016.32
1010.78 1010.74 1010.34 1009.58 1009.47 1009.51 1009.87 1010.89 1011.93 1013.09 1013.78 1014.51 1015.36 1016.06 1016.66 1017.26 1017.92 1018.56 1018.96 1019.43 1020.09 1020.35 1020.29 1020.39 1020.50 1020.43 1020.37 1020.17 1019.83 1019.66 1019.62 1019.61 1019.90 1020.12 1019.99 1020.16 1020.28 1020.32 1020.24 1019.98 1019.90 1019.74 1019.17 1018.79 1018.43 1017.85 1017.36 1017.13 1016.63
1011.14 1011.04 1010.66 1009.01 1008.96 1008.89 1009.96 1011.30 1012.38 1012.87 1013.30 1014.59 1015.40 1016.24 1016.85 1017.46 1018.01 1018.62 1019.06 1019.67 1020.13 1020.36 1020.53 1020.58 1020.70 1020.74 1020.43 1020.18 1020.05 1019.79 1019.88 1020.05 1020.31 1020.39 1020.38 1020.58 1020.55 1020.63 1020.73 1020.66 1020.54 1020.35 1019.85 1019.45 1019.16 1018.57 1017.80 1017.39 1016.85
1011.14 1011.17 1010.61 1009.43 1008.22 1008.89 1009.93 1011.53 1012.76 1013.06 1013.63 1014.49 1015.06 1015.69 1016.45 1017.33 1017.98 1018.48 1019.15 1019.79 1020.26 1020.50 1020.77 1020.94 1021.07 1021.02 1020.82 1020.31 1020.19 1020.16 1020.20 1020.35 1020.55 1020.61 1020.69 1020.97 1020.88 1020.88 1020.99 1021.08 1020.96 1020.59 1020.34 1019.97 1019.62 1019.23 1018.69 1017.91 1017.15
1011.02 1010.86 1010.43 1010.04 1009.07 1009.21 1010.25 1011.37 1012.36 1012.56 1012.80 1013.57 1014.41 1015.27 1016.03 1016.75 1017.58 1018.50 1019.34 1020.07 1020.53 1020.89 1021.08 1021.18 1021.07 1021.12 1020.90 1020.85 1020.68 1020.62 1020.75 1020.90 1020.89 1020.96 1021.20 1021.20 1021.24 1021.23 1021.46 1021.63 1021.43 1021.15 1020.74 1020.47 1020.10 1019.87 1019.42 1018.58 1017.82
1010.81 1010.48 1010.35 1009.68 1009.90 1009.88 1010.41 1011.01 1011.77 1011.94 1012.68 1013.12 1013.50 1014.26 1015.23 1016.43 1017.52 1018.38 1019.02 1019.81 1020.62 1021.20 1021.42 1021.73 1021.74 1021.45 1021.17 1021.31 1021.37 1021.47 1021.66 1021.56 1021.58 1021.65 1021.63 1021.59 1021.50 1021.48 1021.91 1022.17 1021.98 1021.74 1021.45 1021.20 1020.89 1020.46 1019.72 1018.92 1018.31
1010.62 1010.59 1010.53 1010.11 1009.55 1010.07 1010.68 1011.18 1010.82 1011.32 1011.46 1011.57 1012.49 1013.90 1014.90 1016.47 1017.65 1018.70 1019.67 1020.27 1020.86 1021.31 1021.71 1021.95 1022.16 1022.08 1021.93 1021.72 1021.97 1021.99 1021.94 1022.49 1022.34 1022.27 1022.19 1022.10 1021.98 1022.19 1022.28 1022.53 1022.36 1022.06 1021.82 1021.61 1021.32 1020.90 1020.40 1019.90 1019.39
1010.75 1010.89 1010.96 1011.03 1010.59 1010.40 1010.67 1010.28 1010.64 1010.28 1010.03 1011.01 1012.16 1012.79 1014.22 1015.52 1017.03 1018.30 1019.24 1020.02 1020.70 1021.42 1022.01 1022.17 1022.36 1022.53 1022.60 1022.52 1022.26 1022.27 1022.30 1022.55 1022.88 1023.11 1023.02 1022.81 1022.55 1022.80 1022.95 1022.91 1022.78 1022.52 1022.08 1021.90 1021.74 1021.25 1020.89 1020.52 1020.17
1011.09 1011.14 1011.41 1011.74 1012.12 1012.15 1012.36 1011.29 1010.98 1010.59 1010.17 1010.49 1011.49 1012.74 1014.18 1015.70 1017.22 1018.53 1019.61 1020.48 1021.06 1021.56 1021.86 1022.16 1022.45 1022.85 1023.10 1022.86 1022.88 1023.14 1023.46 1023.60 1023.77 1023.71 1023.74 1023.45 1023.30 1023.34 1023.39 1023.27 1023.03 1022.75 1022.52 1022.32 1022.03 1021.54 1021.40 1021.22 1020.49
1011.30 1011.66 1012.19 1012.75 1013.33 1012.93 1012.91 1013.01 1010.23 1010.88 1010.83 1010.92 1011.50 1012.65 1014.19 1015.71 1016.96 1018.37 1019.51 1020.43 1021.11 1021.71 1022.22 1022.67 1022.85 1022.86 1023.09 1023.43 1023.28 1023.36 1023.90 1024.13 1024.10 1024.06 1024.11 1024.07 1023.89 1023.83 1023.79 1023.71 1023.46 1023.31 1023.12 1022.79 1022.60 1022.15 1021.84 1021.31 1021.05
1011.49 1012.30 1012.96 1013.51 1014.15 1013.62 1013.40 1013.50 1011.49 1011.57 1011.18 1010.75 1011.20 1012.90 1014.73 1016.40 1017.94 1019.32 1020.32 1021.02 1021.86 1022.31 1022.63 1022.77 1023.13 1023.32 1023.32 1023.46 1023.92 1023.90 1024.04 1024.26 1024.47 1024.38 1024.36 1024.43 1024.36 1024.24 1024.09 1024.11 1024.03 1023.67 1023.69 1023.35 1022.88 1022.75 1022.14 1021.58 1021.39
1011.85 1013.17 1014.24 1014.78 1014.89 1013.94 1013.22 1013.17 1012.61 1012.62 1012.18 1011.92 1012.65 1014.45 1016.03 1017.77 1019.22 1020.38 1021.16 1021.98 1022.58 1022.90 1023.56 1023.59 1023.71 1023.93 1023.96 1023.81 1024.18 1024.29 1024.35 1024.38 1024.58 1024.61 1024.61 1024.80 1024.77 1024.55 1024.49 1024.52 1024.50 1024.32 1023.96 1023.61 1023.29 1022.81 1022.51 1022.09 1021.59
1012.09 1013.31 1014.59 1014.92 1015.28 1014.66 1014.10 1013.22 1013.42 1013.29 1013.57 1013.46 1014.29 1015.84 1017.48 1018.74 1019.78 1020.91 1021.77 1022.63 1023.42 1023.70 1024.07 1024.33 1024.46 1024.59 1024.48 1024.45 1024.59 1024.61 1024.56 1024.59 1024.70 1024.88 1024.95 1025.26 1025.09 1025.02 1025.13 1025.05 1024.89 1024.58 1024.22 1023.96 1023.50 1023.06 1022.81 1022.41 1021.98
1012.09 1012.87 1013.59 1014.74 1015.27 1015.40 1014.60 1013.61 1013.70 1014.02 1014.90 1015.48 1016.44 1017.18 1018.36 1019.48 1020.57 1021.40 1022.03 1023.00 1023.69 1024.24 1024.83 1024.91 1025.10 1025.25 1025.21 1025.13 1025.06 1025.00 1024.96 1024.77 1025.02 1025.22 1025.48 1025.46 1025.51 1025.51 1025.59 1025.43 1025.16 1024.90 1024.62 1024.30 1023.84 1023.58 1023.19 1022.79 1022.36
1011.75 1012.53 1013.74 1014.80 1015.92 1015.96 1015.25 1014.55 1014.48 1015.02 1015.84 1016.73 1017.67 1018.34 1019.19 1019.71 1020.66 1022.08 1023.15 1024.09 1023.98 1025.08 1025.31 1025.24 1025.52 1025.94 1026.00 1025.79 1025.57 1025.51 1025.37 1025.28 1025.42 1025.68 1025.89 1025.86 1026.00 1026.06 1025.90 1025.79 1025.54 1025.25 1025.26 1024.65 1024.22 1023.80 1023.45 1023.15 1022.74
1012.23 1012.67 1013.60 1014.53 1015.71 1015.96 1015.83 1015.16 1014.44 1014.66 1015.26 1016.39 1017.51 1018.38 1019.38 1020.43 1021.48 1022.55 1023.60 1024.61 1025.10 1025.38 1026.06 1026.07 1026.25 1026.40 1026.39 1026.23 1026.11 1025.93 1025.89 1025.83 1025.84 1026.06 1026.24 1026.19 1026.29 1026.42 1026.26 1026.11 1026.06 1025.87 1025.75 1025.21 1024.64 1024.17 1023.80 1023.47 1023.04
1012.61 1012.80 1013.53 1014.82 1015.25 1015.48 1015.64 1014.50 1013.72 1014.29 1014.94 1015.61 1016.92 1018.21 1019.13 1020.24 1021.76 1022.83 1023.97 1025.01 1025.53 1026.05 1026.40 1026.42 1026.69 1026.71 1026.57 1026.57 1026.34 1026.26 1026.28 1026.13 1026.17 1026.41 1026.43 1026.39 1026.44 1026.59 1026.66 1026.56 1026.56 1026.54 1026.30 1025.62 1025.13 1024.53 1024.29 1023.91 1023.42
Thickness
5779 5784 5786 5778 5739 5740 5732 5757 5793 5795 5790 5792 5806 5784 5748 5737 5728 5706 5710 5714 5718 5715 5714 5723 5725 5727 5727 5728 5729 5730 5729 5728 5727 5726 5724 5723 5720 5719 5716 5715 5715 5712 5712 5711 5710 5709 5709 5710 5710
5776 5780 5778 5764 5730 5720 5727 5773 5768 5780 5789 5796 5794 5779 5760 5732 5727 5715 5709 5713 5712 5712 5715 5717 5718 5720 5721 5722 5724 5723 5722 5722 5722 5722 5720 5718 5716 5714 5712 5711 5709 5708 5708 5707 5706 5705 5706 5706 5706
5773 5775 5752 5743 5733 5721 5726 5767 5776 5786 5792 5791 5770 5763 5745 5725 5722 5715 5713 5712 5711 5711 5709 5708 5711 5715 5717 5716 5715 5716 5716 5715 5715 5714 5714 5712 5711 5710 5709 5706 5707 5704 5704 5703 5703 5701 5702 5702 5702
5763 5762 5754 5729 5730 5747 5758 5766 5780 5782 5782 5778 5764 5730 5725 5719 5718 5716 5715 5712 5707 5705 5704 5706 5708 5710 5711 5709 5708 5709 5709 5708 5707 5707 5706 5706 5706 5706 5705 5703 5703 5701 5701 5701 5700 5700 5700 5700 5700
5763 5750 5723 5725 5736 5755 5769 5783 5780 5775 5767 5764 5763 5727 5711 5711 5711 5710 5708 5704 5702 5699 5700 5701 5702 5702 5702 5702 5702 5700 5700 5701 5700 5700 5700 5701 5700 5701 5701 5700 5699 5699 5698 5699 5699 5699 5699 5698 5699
5733 5739 5712 5709 5733 5756 5767 5784 5785 5756 5753 5756 5738 5731 5701 5708 5702 5701 5700 5697 5696 5696 5695 5695 5695 5694 5695 5695 5694 5693 5692 5692 5691 5692 5695 5696 5695 5695 5697 5696 5697 5695 5695 5695 5695 5696 5697 5697 5698
5726 5714 5711 5724 5734 5739 5754 5775 5757 5748 5741 5734 5749 5714 5699 5700 5700 5697 5695 5694 5693 5693 5690 5689 5688 5687 5688 5688 5687 5686 5684 5684 5683 5684 5686 5688 5687 5689 5690 5691 5693 5691 5692 5693 5692 5694 5694 5695 5695
5732 5720 5718 5721 5717 5732 5749 5755 5753 5743 5724 5736 5734 5708 5689 5698 5698 5695 5693 5692 5690 5687 5684 5682 5681 5680 5681 5681 5680 5679 5678 5676 5675 5675 5675 5679 5680 5680 5683 5683 5684 5686 5689 5689 5688 5691 5692 5693 5693
5745 5702 5694 5710 5721 5727 5745 5738 5740 5736 5722 5718 5717 5712 5707 5703 5697 5690 5688 5686 5683 5678 5675 5674 5672 5674 5676 5675 5673 5671 5671 5669 5667 5667 5666 5669 5669 5670 5673 5674 5675 5675 5679 5683 5684 5685 5687 5691 5689
5716 5694 5707 5727 5726 5725 5738 5732 5728 5719 5711 5701 5703 5705 5700 5696 5689 5683 5681 5676 5673 5669 5665 5663 5662 5665 5668 5667 5666 5664 5662 5662 5661 5659 5657 5658 5660 5659 5661 5662 5666 5668 5671 5674 5675 5679 5682 5684 5683
5719 5702 5715 5721 5731 5728 5720 5722 5727 5711 5703 5708 5694 5692 5693 5685 5677 5673 5672 5670 5664 5660 5658 5655 5655 5656 5657 5658 5658 5657 5654 5655 5654 5651 5652 5649 5650 5649 5652 5653 5655 5659 5662 5663 5663 5665 5668 5670 5671
5708 5718 5718 5726 5731 5720 5710 5715 5695 5699 5698 5710 5693 5687 5684 5677 5670 5666 5662 5660 5656 5650 5648 5646 5647 5647 5647 5649 5648 5649 5649 5649 5648 5645 5643 5643 5640 5640 5640 5643 5646 5647 5646 5648 5651 5653 5656 5658 5660
5703 5704 5714 5724 5727 5722 5717 5700 5685 5681 5687 5693 5690 5679 5671 5665 5661 5659 5655 5653 5647 5642 5641 5639 5638 5638 5639 5640 5641 5642 5642 5642 5639 5637 5635 5632 5629 5630 5630 5631 5633 5631 5634 5635 5639 5643 5646 5648 5650
5699 5702 5700 5708 5710 5716 5707 5696 5692 5676 5687 5681 5675 5666 5662 5659 5655 5648 5645 5642 5640 5638 5636 5633 5630 5630 5631 5632 5633 5633 5633 5632 5630 5624 5626 5623 5620 5618 5620 5620 5619 5620 5623 5625 5627 5631 5632 5633 5636
5697 5684 5691 5703 5702 5700 5705 5691 5683 5677 5679 5672 5664 5659 5657 5655 5650 5645 5642 5638 5633 5629 5628 5625 5622 5622 5621 5622 5623 5623 5622 5622 5619 5615 5616 5613 5609 5608 5608 5608 5607 5607 5611 5612 5614 5618 5622 5623 5625
5681 5679 5665 5699 5701 5705 5690 5666 5673 5673 5674 5662 5657 5652 5649 5645 5641 5637 5633 5628 5622 5619 5616 5614 5610 5609 5610 5611 5611 5613 5611 5609 5607 5605 5604 5601 5598 5596 5594 5593 5592 5593 5596 5598 5599 5603 5609 5611 5615
5671 5652 5662 5680 5705 5691 5678 5666 5662 5664 5662 5655 5655 5652 5647 5639 5634 5630 5623 5617 5613 5609 5606 5602 5599 5597 5597 5600 5600 5599 5598 5596 5595 5593 5591 5587 5586 5584 5582 5580 5579 5580 5580 5583 5584 5586 5590 5596 5601
5656 5658 5663 5664 5683 5678 5668 5661 5653 5663 5663 5658 5651 5646 5643 5638 5630 5622 5613 5607 5602 5597 5594 5592 5592 5589 5589 5586 5585 5585 5583 5581 5581 5580 5575 5574 5572 5571 5568 5564 5564 5564 5566 5566 5568 5570 5572 5579 5584
5664 5667 5661 5666 5674 5672 5661 5655 5646 5650 5649 5648 5647 5645 5640 5631 5622 5615 5608 5600 5592 5584 5583 5579 5578 5578 5578 5574 5570 5568 5564 5566 5564 5562 5560 5560 5559 5557 5551 5548 5548 5548 5549 5549 5550 5551 5555 5560 5565
5656 5649 5648 5662 5674 5662 5648 5642 5654 5646 5651 5655 5645 5632 5629 5617 5610 5602 5591 5584 5580 5575 5571 5567 5564 5562 5561 5562 5556 5553 5552 5547 5546 5545 5545 5544 5544 5540 5537 5534 5533 5533 5532 5532 5533 5535 5537 5538 5540
5645 5641 5638 5635 5649 5655 5644 5645 5649 5657 5657 5649 5638 5637 5623 5612 5604 5596 5588 5578 5570 5563 5557 5554 5551 5546 5543 5542 5542 5539 5537 5533 5529 5524 5525 5525 5526 5523 5519 5518 5516 5515 5516 5515 5514 5517 5518 5517 5518
5621 5639 5632 5625 5619 5605 5622 5599 5635 5646 5650 5643 5636 5623 5610 5599 5588 5580 5573 5563 5558 5549 5545 5542 5538 5530 5525 5526 5523 5519 5514 5511 5508 5507 5505 5506 5505 5505 5501 5500 5498 5498 5497 5495 5495 5497 5497 5496 5500
5615 5623 5617 5614 5600 5602 5603 5587 5635 5634 5629 5626 5624 5616 5602 5591 5582 5572 5559 5554 5545 5539 5530 5524 5523 5518 5515 5510 5508 5504 5498 5494 5492 5491 5489 5487 5487 5486 5483 5482 5481 5479 5478 5478 5477 5478 5478 5481 5482
5617 5607 5600 5598 5586 5568 5598 5578 5601 5607 5614 5625 5620 5604 5588 5576 5562 5549 5540 5534 5525 5519 5515 5513 5510 5502 5500 5497 5491 5488 5484 5480 5475 5474 5473 5470 5469 5469 5467 5464 5462 5463 5459 5459 5461 5458 5461 5464 5464
5602 5584 5553 5553 5555 5563 5599 5583 5586 5595 5598 5603 5599 5580 5566 5551 5539 5530 5521 5511 5505 5499 5493 5491 5490 5483 5481 5481 5476 5472 5469 5466 5461 5458 5456 5453 5452 5452 5450 5447 5444 5443 5442 5441 5442 5443 5443 5444 5447
5583 5572 5545 5549 5545 5555 5585 5570 5580 5576 5578 5583 5575 5559 5544 5535 5527 5515 5505 5495 5487 5483 5476 5472 5469 5463 5463 5463 5460 5457 5455 5452 5449 5444 5441 5437 5436 5434 5431 5429 5427 5426 5425 5424 5425 5425 5424 5425 5427
5574 5564 5575 5552 5555 5534 5558 5575 5574 5567 5558 5556 5552 5541 5528 5519 5510 5499 5492 5482 5474 5467 5459 5457 5454 5448 5447 5446 5445 5442 5440 5440 5435 5430 5424 5423 5419 5415 5414 5413 5411 5410 5409 5408 5408 5406 5405 5406 5406
5576 5577 5548 5542 5529 5527 5543 5554 5550 5548 5543 5536 5522 5521 5517 5512 5500 5483 5470 5463 5461 5450 5444 5443 5439 5434 5431 5430 5429 5428 5427 5426 5422 5415 5411 5408 5404 5401 5399 5397 5395 5394 5390 5390 5388 5387 5385 5384 5385
5558 5554 5553 5548 5527 5524 5525 5522 5547 5542 5543 5532 5519 5510 5502 5490 5476 5463 5452 5446 5440 5437 5430 5429 5424 5420 5418 5418 5416 5414 5412 5410 5407 5401 5398 5396 5391 5387 5384 5381 5377 5373 5369 5367 5366 5365 5363 5361 5361
5557 5554 5552 5509 5527 5515 5503 5520 5559 5543 5537 5531 5520 5500 5492 5482 5464 5452 5444 5434 5427 5420 5418 5418 5413 5410 5407 5404 5404 5401 5398 5397 5395 5389 5387 5383 5379 5373 5367 5363 5357 5350 5346 5345 5343 5344 5341 5340 5340